ARABSAT-5C

Last updated on Mon Sep 14 2026 00:02:57 GMT+0000 (Coordinated Universal Time)

1 37810U 11049B 26256.50979892 .00000113 00000+0 00000+0 0 9997 2 37810 0.0603 21.0656 0004041 161.9053 13.0797 1.00274276 54920
UTC large
Height (km)
Speed (km/s)
/
Latitude / Longitude
Inclination (degrees)
Orbital Period (minutes)
Azimuth
Elevation
Range (km)
Doppler Factor

Next 0 passes for location: London (51.5072 / 0.1276)

No passes found over London.
ARABSAT-5C